Flag for United Kingdom Weather past 2 weeks in Sheffield, England, United Kingdom

48 °F

Partly sunny.

Feels Like: 46 °F
Forecast: 42 / 53 °F
Wind: 6 mph from Northwest

Location: Manchester Airport

Current Time: Nov 26, 2015 at 11:11:41 AM

Latest Report: Nov 26, 2015 at 10:20 AM

Visibility: N/A

Pressure: 30.12 "Hg

Humidity: 100%

Dew point: 48 °F

Location of SheffieldLocation

Historic Weather in Sheffield — Graph


Sheffield temperature yesterday

Maximum temperature yesterday: 50 °F (at 1:20 PM)
Minimum temperature yesterday: 43 °F (at 1:20 AM)
Average temperature yesterday: 47 °F

Past Weeks' High & Low Weather Summary

High59 °F (Nov 11, 10:50 AM)100% (Nov 14, 2:20 PM)30.24 "Hg (Nov 14, 2:20 PM)
Low28 °F (Nov 21, 7:50 PM)48% (Nov 21, 2:20 PM)29.27 "Hg (Nov 17, 2:20 PM)
Average46 °F84%29.84 "Hg
* Reported Nov 11 9:20 AM — Nov 26 9:50 AM, Sheffield, Weather by CustomWeather, © 2015

Note: Actual official high and low records may vary slightly from our data, if they occured in-between our weather recording intervals... More about our weather records


Sheffield weather history for previous 24 hours

Time TempWeatherWind HumidityBarometerVisibility
9:50 AM
Thu, Nov 26
48 °FPartly sunny.6 mph100%30.09 "HgN/A
9:20 AM48 °FBroken clouds.5 mph100%30.09 "Hg4 mi
8:50 AM46 °FFog.5 mph100%30.09 "Hg2 mi
8:20 AM46 °FBroken clouds.3 mph100%30.09 "Hg4 mi
7:50 AM46 °FFog.2 mph93%30.09 "Hg2 mi
7:20 AM46 °FFog.3 mph93%30.07 "Hg1 mi
6:20 AM46 °FLight rain. Partly cloudy.3 mph100%30.07 "Hg1 mi
5:50 AM46 °FPartly cloudy.5 mph100%30.07 "Hg2 mi
5:20 AM46 °FLight rain. Partly cloudy.6 mph93%30.07 "Hg2 mi
4:50 AM46 °FPartly cloudy.7 mph93%30.07 "Hg1 mi
4:20 AM46 °FPassing clouds.8 mph93%30.04 "Hg5 mi
3:50 AM46 °FOvercast.6 mph93%30.04 "Hg5 mi
3:20 AM46 °FPartly cloudy.8 mph93%30.04 "Hg4 mi
2:50 AM46 °FDrizzle. Mostly cloudy.7 mph93%30.04 "Hg4 mi
2:20 AM46 °FPartly cloudy.5 mph100%30.04 "Hg4 mi
1:50 AM46 °FPassing clouds.6 mph100%30.04 "Hg4 mi
1:20 AM46 °FPartly cloudy.6 mph100%30.04 "Hg4 mi
12:20 AM48 °FPassing clouds.10 mph94%30.04 "Hg4 mi
11:50 PM
Wed, Nov 25
48 °FLight rain. Partly cloudy.12 mph94%30.01 "Hg4 mi
11:20 PM48 °FLight rain. Partly cloudy.9 mph94%30.01 "Hg5 mi
10:50 PM48 °FPartly cloudy.9 mph94%30.01 "Hg4 mi
10:20 PM48 °FPartly cloudy.8 mph94%30.01 "Hg6 mi
9:50 PM48 °FPartly cloudy.7 mph94%30.01 "Hg6 mi
9:20 PM48 °FPartly cloudy.8 mph94%30.01 "HgN/A
8:50 PM48 °FPartly cloudy.8 mph94%30.01 "HgN/A
8:20 PM48 °FPassing clouds.9 mph94%30.01 "HgN/A
7:50 PM48 °FPartly cloudy.10 mph94%30.01 "HgN/A
7:20 PM48 °FLight rain. Partly cloudy.9 mph87%29.98 "HgN/A
6:50 PM48 °FPartly cloudy.9 mph87%29.98 "HgN/A
6:20 PM48 °FPassing clouds.10 mph87%29.98 "HgN/A
5:50 PM48 °FClear.10 mph87%29.95 "Hg10 mi
5:20 PM48 °FPassing clouds.9 mph87%29.95 "HgN/A
4:50 PM48 °FPassing clouds.9 mph87%29.95 "HgN/A
4:20 PM48 °FPassing clouds.9 mph87%29.92 "HgN/A
3:50 PM48 °FScattered clouds.13 mph87%29.92 "HgN/A
3:20 PM48 °FScattered clouds.14 mph87%29.92 "HgN/A
2:50 PM48 °FScattered clouds.14 mph87%29.92 "HgN/A
2:20 PM50 °FScattered clouds.14 mph82%29.89 "HgN/A
1:50 PM50 °FPassing clouds.12 mph82%29.89 "HgN/A
1:20 PM50 °FPassing clouds.13 mph82%29.89 "HgN/A
12:50 PM48 °FPassing clouds.13 mph82%29.89 "HgN/A
12:20 PM48 °FCool.12 mph82%29.89 "HgN/A
11:50 AM48 °FSunny.12 mph87%29.89 "Hg10 mi
11:20 AM48 °FPassing clouds.10 mph87%29.89 "HgN/A
Weather by CustomWeather, © 2015

See weather overviewHow to use our weather pages